Bangor, ME

6:23 AM EDT on July 24, 2017 (GMT -0400)
Bangor International

Weather History for KBGR - February, 2014

Change the Weather History Date:

Thursday, February 6, 2014

  Actual Average Record
Temperature  
Mean Temperature 5 °F 18 °F  
Max Temperature 19 °F 29 °F 45 °F (1999)
Min Temperature -10 °F 8 °F -22 °F (1934)
Degree Days  
Heating Degree Days 60 46  
Month to date heating degree days 271 281  
Since 1 July heating degree days 4712 4688  
Cooling Degree Days 0 0  
Month to date cooling degree days 0 0  
Year to date cooling degree days 0 0  
Moisture  
Dew Point 2 °F    
Average Humidity 70    
Maximum Humidity 91    
Minimum Humidity 49    
Precipitation  
Precipitation T in 0.09 in 0.49 in (1975)
Month to date precipitation 0.49 0.53  
Year to date precipitation 3.67 3.42  
Snow  
Snow T in 0.50 in 7.00 in (2001)
Month to date snowfall 9.2 3.2  
Since 1 July snowfall 47.2 39.2  
Snow Depth 8.00 in    
Sea Level Pressure  
Sea Level Pressure 30.16 in    
Wind  
Wind Speed 6 mph (NW)    
Max Wind Speed 14 mph    
Max Gust Speed 17 mph    
Visibility 10 miles    
Events      
T = Trace of Precipitation, MM = Missing Value Source: NWS Daily Summary

Daily Weather History Graph

Daily Weather History Graph

Search for Another Location

Airport or City:

Trip Planner

Search our weather history database for the weather conditions in past years. The results will help you decide how hot, cold, wet, or windy it might be!

Date:

Astronomy

Feb. 06, 2014 Rise Set
Actual Time 6:48 AM EST 4:50 PM EST
Civil Twilight 6:17 AM EST 5:21 PM EST
Nautical Twilight 5:43 AM EST 5:56 PM EST
Astronomical Twilight 5:09 AM EST 6:30 PM EST
Moon 10:19 AM EST (2/6) 12:00 AM EST (2/6)
Length of Visible Light 11h 03m
Length of Day
10h 02m
Waxing Crescent, 49% of the Moon is Illuminated
Feb 6
Waxing Crescent
Feb 6
First Quarter
Feb 14
Full
Feb 22
Last Quarter
Mar 1
New

Hourly Weather History & Observations

Time (EST) Temp. Windchill Dew Point Humidity Pressure Visibility Wind Dir Wind Speed Gust Speed Precip Events Conditions
12:53 AM 12.9 °F -0.9 °F 8.1 °F 81% 29.95 in 10.0 mi North 11.5 mph - 0.00 in   Scattered Clouds
1:53 AM 12.0 °F -0.4 °F 6.1 °F 77% 29.99 in 10.0 mi North 9.2 mph - N/A   Clear
2:53 AM 7.0 °F -5.7 °F 3.0 °F 84% 30.02 in 10.0 mi NNW 8.1 mph - N/A   Partly Cloudy
3:53 AM 1.0 °F -6.7 °F -2.9 °F 83% 30.06 in 10.0 mi North 3.5 mph - N/A   Clear
4:53 AM 6.1 °F -6.8 °F 1.0 °F 80% 30.11 in 10.0 mi North 8.1 mph - N/A   Clear
5:53 AM -0.9 °F -8.9 °F -2.9 °F 91% 30.14 in 10.0 mi NNW 3.5 mph - N/A   Clear
6:53 AM -6.0 °F -16.9 °F -8.0 °F 91% 30.18 in 10.0 mi NW 4.6 mph - N/A   Partly Cloudy
7:53 AM -7.1 °F -15.9 °F -9.0 °F 91% 30.21 in 10.0 mi NW 3.5 mph - N/A   Partly Cloudy
8:53 AM 3.9 °F - 1.0 °F 88% 30.22 in 10.0 mi Calm Calm - N/A   Scattered Clouds
9:53 AM 10.0 °F -2.9 °F 1.0 °F 67% 30.23 in 10.0 mi NW 9.2 mph - N/A   Partly Cloudy
10:53 AM 12.9 °F -0.9 °F 1.9 °F 62% 30.23 in 10.0 mi NNW 11.5 mph - N/A   Scattered Clouds
11:53 AM 15.1 °F 5.2 °F 3.0 °F 59% 30.22 in 10.0 mi WNW 6.9 mph - N/A   Scattered Clouds
12:53 PM 17.1 °F 6.6 °F 1.9 °F 52% 30.20 in 10.0 mi WNW 8.1 mph - N/A   Scattered Clouds
1:53 PM 18.0 °F 8.7 °F 3.0 °F 52% 30.20 in 10.0 mi West 6.9 mph - N/A   Scattered Clouds
2:53 PM 18.0 °F 8.7 °F 3.9 °F 54% 30.19 in 10.0 mi SW 6.9 mph - N/A   Scattered Clouds
3:53 PM 19.0 °F 10.0 °F 5.0 °F 54% 30.20 in 10.0 mi WSW 6.9 mph - N/A   Mostly Cloudy
4:53 PM 15.1 °F - 3.9 °F 61% 30.21 in 10.0 mi Calm Calm - N/A   Mostly Cloudy
5:53 PM 8.1 °F - 3.0 °F 80% 30.21 in 10.0 mi Calm Calm - N/A   Scattered Clouds
6:53 PM 7.0 °F 0.1 °F 3.0 °F 84% 30.20 in 10.0 mi SSE 3.5 mph - N/A   Partly Cloudy
7:53 PM 9.0 °F 2.4 °F 5.0 °F 84% 30.19 in 10.0 mi SSW 3.5 mph - N/A   Scattered Clouds
8:53 PM 12.0 °F 5.9 °F 6.1 °F 77% 30.18 in 10.0 mi SSW 3.5 mph - N/A   Scattered Clouds
9:53 PM 5.0 °F - 1.9 °F 87% 30.17 in 10.0 mi Calm Calm - N/A   Scattered Clouds
10:53 PM 10.0 °F - 5.0 °F 80% 30.16 in 10.0 mi Calm Calm - N/A   Scattered Clouds
11:53 PM 9.0 °F - 5.0 °F 84% 30.16 in 10.0 mi Calm Calm - N/A   Overcast